Regional Weather Roundup
Issued by NWS

Home | Current Version | Previous Version | Text Only | Print | Product List | Glossary Off
Versions: 1 2 3 4 5 6 7 8 9 10 11 12 13 14 15 16 17 18 19 20 21 22 23 24 25 26 27 28 29 30 31 32 33 34 35 36 37 38 39 40 41 42 43 44 45 46 47 48 49 50

000
ASUS43 KLMK 200002
RWRKY
KENTUCKY REGIONAL WEATHER ROUNDUP
NATIONAL WEATHER SERVICE LOUISVILLE KY
800 PM EDT THU OCT 19 2017

NOTE "FAIR" INDICATES FEW OR NO CLOUDS BELOW 12,000 FEET
WITH NO SIGNIFICANT WEATHER AND/OR OBSTRUCTIONS TO VISIBILITY.

KYZ001>023-026-027-061>063-070>075-200100-
WESTERN AND SOUTH CENTRAL KENTUCKY

CITY           SKY/WX    TMP DP  RH WIND       PRES   REMARKS
PADUCAH        CLEAR     62  50  64 S3        30.19R
HENDERSON      CLEAR     61  52  72 S5        30.21R
OWENSBORO      CLEAR     65  52  62 SE3       30.22R
HOPKINSVILLE   CLEAR     67  50  55 S3        30.21R
BOWLING GREEN  CLEAR     63  51  65 SE3       30.23R
GLASGOW        NOT AVBL
$$

KYZ024-025-028>034-038-045-046-053-200100-
NORTH CENTRAL KENTUCKY

CITY           SKY/WX    TMP DP  RH WIND       PRES   REMARKS
LOUISVILLE/SDF PTCLDY    67  52  58 SW5       30.22R
LOUISVILLE/LOU CLEAR     65  53  65 S3        30.23R
FORT KNOX      CLEAR     58  51  77 CALM      30.22R
$$

KYZ035>037-039>044-047>052-055>060-089>105-200100-
NORTHEAST KENTUCKY

CITY           SKY/WX    TMP DP  RH WIND       PRES   REMARKS
LEXINGTON      CLEAR     63  49  60 S5        30.24S
COVINGTON      PTCLDY    61  53  75 S5        30.21R
FRANKFORT      CLEAR     58  50  75 CALM      30.23R
$$

KYZ054-064>069-076>088-106>120-200100-
SOUTHEAST KENTUCKY

CITY           SKY/WX    TMP DP  RH WIND       PRES   REMARKS
JACKSON        CLEAR     62  45  53 CALM      30.26R
LONDON         CLEAR     58  49  72 CALM      30.26R
SOMERSET       NOT AVBL
MIDDLESBORO    CLEAR     58  49  72 CALM      30.29R
MONTICELLO     CLEAR     53  48  83 W8        30.28R
$$





USA.gov is the U.S. government's official web portal to all federal, state and local government web resources and services.